Content
SEND FEEDBACK

Daily
Averages
Monthly
Summary
United States of America

ST. LOUIS, MISSOURI


Home > North America > United States > Missouri
Elevation: 163 meters     Latitude: 38 45N     Longitude: 090 22W

WEATHER
 
SELECT A DAY
Number of Records: 196,446;   Date Range: 1/1/95 - 8/12/14
 
SHARE

PRINT THIS DATA

[ ← Previous Day ]
WEATHER ALMANAC - 19 SEPTEMBER, 2013
[ Next Day → ]
[ °F ]   °C
Weather ElementAverageHighLow
Temperature27.4 °C32.8 °C (3:54 pm)22.8 °C (6:54 am)
Dewpoint20.3 °C21.7 °C (8:54 pm)19.4 °C (1:54 am)
Humidity66.1 %84 % (6:54 am)46 % (4:54 pm)
Barometer1012.9 hPa1014.6 hPa (6:54 am)1010.2 hPa (5:54 pm)
Wind Speed10.6 km/h25.9 km/h (1:54 pm)
Wind Gust27.8 km/h (9:54 pm)
Weather ElementAverage
Visibility15.3 km
Wind DirectionSSE (173.9 °)

Weather ElementTotal
Precipitation---
Cooling Degree Days9.4 (Base 18.3)
Growing Degree Days17.8 (Base 10)
Averaged from 23 records on 19 September, 2013
WEATHER CONDITIONS BREAKOUT
WIND DIRECTION BREAKOUT
WEATHER BY HOUR - 19 SEPTEMBER, 2013
[ °F ]   °C
Local TimeTemperatureDewpointHumidityBarometerVisibilityWind DirectionWind SpeedGust SpeedPrecipitationEventsConditions
1:54 AM25 °C19.4 °C71 %1013.9 hPa16.1 kmSouth (190°)7.4 km/hClear
2:54 AM24.4 °C20 °C76 %1013.9 hPa14.5 kmSSE (160°)7.4 km/h0 mmRainLight Rain
3:54 AM23.9 °C20 °C79 %1013.9 hPa12.9 kmSouth (190°)9.3 km/h0 mmPartly Cloudy
4:54 AM23.9 °C20 °C79 %1013.9 hPa14.5 kmSouth (190°)5.6 km/hClear
5:54 AM23.3 °C20 °C82 %1014.2 hPa14.5 kmCalmClear
6:54 AM22.8 °C20 °C84 %1014.6 hPa12.9 kmSE (140°)5.6 km/hClear
7:54 AM23.9 °C20.6 °C82 %1014.6 hPa11.3 kmVariable5.6 km/h0 mmRainLight Rain
8:54 AM25.6 °C20.6 °C74 %1014.6 hPa14.5 kmVariable7.4 km/h0 mmMostly Cloudy
9:54 AM27.2 °C20.6 °C67 %1014.6 hPa16.1 kmSW (220°)14.8 km/hMostly Cloudy
10:54 AM27.8 °C21.1 °C67 %1014.6 hPa16.1 kmSouth (170°)5.6 km/hScattered Clouds
11:54 AM29.4 °C20.6 °C59 %1014.2 hPa16.1 kmSW (230°)14.8 km/hMostly Cloudy
12:54 PM30.6 °C21.1 °C57 %1013.5 hPa16.1 kmSW (220°)11.1 km/hMostly Cloudy
1:54 PM30.6 °C20 °C53 %1013.2 hPa16.1 kmWSW (250°)25.9 km/hMostly Cloudy
2:54 PM31.7 °C20.6 °C52 %1012.5 hPa16.1 kmSW (220°)16.7 km/h25.9 km/hScattered Clouds
3:54 PM32.8 °C20.6 °C48 %1011.5 hPa16.1 kmWSW (240°)9.3 km/hScattered Clouds
4:54 PM32.2 °C19.4 °C46 %1010.5 hPa16.1 kmSW (220°)11.1 km/hScattered Clouds
5:54 PM31.1 °C20 °C51 %1010.2 hPa16.1 kmSSW (200°)11.1 km/hClear
6:54 PM30 °C20 °C55 %1010.2 hPa16.1 kmSouth (190°)13 km/hPartly Cloudy
7:54 PM28.9 °C21.1 °C63 %1010.8 hPa16.1 kmSouth (190°)16.7 km/hPartly Cloudy
8:54 PM27.8 °C21.7 °C69 %1011.5 hPa16.1 kmSouth (190°)11.1 km/hClear
9:54 PM27.2 °C20.6 °C67 %1011.9 hPa16.1 kmSSW (200°)16.7 km/h27.8 km/hClear
10:54 PM26.1 °C20 °C69 %1012.2 hPa16.1 kmSouth (180°)13 km/hClear
11:54 PM25.6 °C20 °C71 %1011.9 hPa16.1 kmSSW (210°)5.6 km/hOvercast
Hourly data recorded from KSUS, located 0 kilometers away from St. Louis, Missouri







STORIES FROM OUR PARTNERS